Weather History for Grazzanise, Italy

Change the Weather History Date:

Friday, August 29, 2014

  Actual Average (LIRN) Record (LIRN)
Temperature  
Mean Temperature 83 °F -  
Max Temperature 92 °F 80 °F 89 °F (2003)
Min Temperature 74 °F 59 °F -22 °F (2002)
Cooling Degree Days 18    
Growing Degree Days 33 (Base 50)    
Moisture  
Dew Point 74 °F    
Average Humidity 81    
Maximum Humidity 100    
Minimum Humidity 53    
Precipitation  
Precipitation 0.00 in 0.10 in - ()
Sea Level Pressure  
Sea Level Pressure 29.94 in    
Wind  
Wind Speed 6 mph ()    
Max Wind Speed 13 mph    
Max Gust Speed -    
Visibility 7.1 miles    
Events      
Averages and records for this station are not official NWS values.
T = Trace of Precipitation, MM = Missing Value Source: Averaged Metar Reports

Daily Weather History Graph

Daily Weather History Graph

Search for Another Location

Airport:

Trip Planner

Search our weather history database for the weather conditions in past years. The results will help you decide how hot, cold, wet, or windy it might be!

Date:

Astronomy

Aug. 29, 2014 Rise Set
Actual Time 6:27 AM CEST 7:41 PM CEST
Civil Twilight 5:58 AM CEST 8:09 PM CEST
Nautical Twilight 5:24 AM CEST 8:43 PM CEST
Astronomical Twilight 4:48 AM CEST 9:19 PM CEST
Moon 10:02 AM CEST (8/29) 9:26 PM CEST (8/29)
Length of Visible Light 14h 11m
Length of Day
13h 14m
Waxing Crescent, 13% of the Moon is Illuminated
Aug 29
Waxing Crescent
Sep 2
First Quarter
Sep 9
Full
Sep 16
Last Quarter
Sep 24
New

Hourly Weather History & Observations

Time (CEST) Temp. Heat Index Dew Point Humidity Pressure Visibility Wind Dir Wind Speed Gust Speed Precip Events Conditions
12:55 AM 73.4 °F - 71.6 °F 94% 29.92 in - NNE 5.8 mph - N/A   Clear
1:55 AM 73.4 °F - 71.6 °F 94% 29.92 in - NE 6.9 mph - N/A   Clear
2:00 AM 74 °F - 71 °F 89% 29.94 in 6 mi NE 6.9 mph - -  
2:55 AM 75.2 °F - 71.6 °F 89% 29.92 in - NE 5.8 mph - N/A   Clear
3:55 AM 75.2 °F - 71.6 °F 89% 29.92 in - NNE 5.8 mph - N/A   Clear
4:55 AM 75.2 °F - 71.6 °F 89% 29.92 in - NE 8.1 mph - N/A   Clear
5:00 AM 75 °F - 72 °F 87% 29.94 in 6 mi NE 8.1 mph - -  
5:55 AM 75.2 °F - 71.6 °F 89% 29.92 in - NE 6.9 mph - N/A   Clear
6:55 AM 75.2 °F - 71.6 °F 89% 29.92 in - NNE 6.9 mph - N/A   Clear
7:55 AM 75.2 °F - 71.6 °F 89% 29.95 in - NE 8.1 mph - N/A   Clear
8:00 AM 75 °F - 72 °F 88% 29.95 in 9 mi NE 8.1 mph - -  
8:55 AM 78.8 °F - 71.6 °F 78% 29.95 in 6.2 mi NE 9.2 mph - N/A   Partly Cloudy
9:55 AM 84.2 °F 90.9 °F 73.4 °F 70% 29.95 in - East 6.9 mph - N/A   Clear
10:55 AM 86.0 °F 91.8 °F 71.6 °F 62% 29.95 in 6.2 mi NE 8.1 mph - N/A   Partly Cloudy
11:00 AM 86 °F - 72 °F 55% 29.97 in 31 mi NE 8.1 mph - -   Scattered Clouds
11:55 AM 87.8 °F 95.6 °F 73.4 °F 62% 29.95 in 6.2 mi NE 6.9 mph - N/A   Partly Cloudy
12:55 PM 89.6 °F 96.2 °F 71.6 °F 55% 29.95 in 6.2 mi East 5.8 mph - N/A   Partly Cloudy
1:55 PM 89.6 °F 99.8 °F 75.2 °F 62% 29.95 in 6.2 mi West 8.1 mph - N/A   Scattered Clouds
2:00 PM 90 °F - 75 °F 53% 29.97 in 25 mi West 8.1 mph - -   Partly Cloudy
2:55 PM 91.4 °F 105.1 °F 77.0 °F 63% 29.95 in 6.2 mi WSW 11.5 mph - N/A   Scattered Clouds
3:55 PM 87.8 °F 99.7 °F 77.0 °F 70% 29.95 in 6.2 mi West 12.7 mph - N/A   Partly Cloudy
4:55 PM 87.8 °F 102.5 °F 78.8 °F 75% 29.95 in 6.2 mi West 11.5 mph - N/A   Partly Cloudy
5:00 PM 87 °F - 79 °F 72% 29.96 in 25 mi West 11.5 mph - -   Scattered Clouds
5:55 PM 86.0 °F 99.3 °F 78.8 °F 79% 29.95 in 6.2 mi West 9.2 mph - N/A   Partly Cloudy
6:55 PM 82.4 °F 90.9 °F 77.0 °F 84% 29.95 in 6.2 mi West 5.8 mph - N/A   Partly Cloudy
7:55 PM 78.8 °F - 77.0 °F 94% 29.92 in 6.2 mi West 3.5 mph - N/A   Scattered Clouds
8:00 PM 79 °F - 77 °F 92% 29.94 in 16 mi West 3.5 mph - -   Scattered Clouds
8:55 PM 75.2 °F - 75.2 °F 100% 29.92 in 6.2 mi NNW 2.3 mph - N/A   Partly Cloudy
9:55 PM 75.2 °F - 75.2 °F 100% 29.95 in 6.2 mi NNW 2.3 mph - N/A   Scattered Clouds
10:55 PM 75.2 °F - 75.2 °F 100% 29.95 in 6.2 mi ESE 2.3 mph - N/A   Scattered Clouds
11:00 PM 75 °F - 75 °F 99% 29.97 in 12 mi ESE 2.3 mph - -   Scattered Clouds
11:55 PM 75.2 °F - 73.4 °F 94% 29.95 in 6.2 mi ENE 2.3 mph - N/A   Scattered Clouds